Seattle, WA
on Wednesday, February 6, 2013

Wednesday
Previous Day Next Day
Daily Summary
 ActualAverageRecord
Temperature
Mean Temperature °F 43°F  
Max Temperature 51°F 49°F 64°F (1993)
Min Temperature 43°F 37°F 18°F (1989)
Degree Days
Heating Degree Days 18 22  
Month to date heating degree days 118 132  
Since 1 July heating degree days 2692 2781  
Cooling Degree Days 0 0  
Month to date cooling degree days 0 0  
Year to date cooling degree days 0 0  
Moisture
Dew Point 39°F   
Average Humidity 75    
Maximum Humidity 89    
Minimum Humidity 61    
Precipitation
Precipitation 0.04 in 0.13 in 1.54 in (1960)
Month to date precipitation 0.27 0.80  
Year to date precipitation 4.43 6.37  
Snow
Snow 0.00 in in T in (1990)
Month to date snowfall 0.0  
Since 1 July snowfall 0.6  
Snow Depth 0.00 in   
Wind
Wind Speed 10 mph   
Max Wind Speed 18 mph   
Max Gust Speed 25 mph   
Visibility 10 miles   
Events Rain   

Key: T is trace of precipitation, MM is missing value
Source: NWS Daily Summary
Time(PST)TemperatureDew PointHumidity Pressure Visibility Wind DirectionWind SpeedGust SpeedPrecipitationEvents Conditions
12:53 AM 44.1°F 39.0°F 82% 29.99 in 10.0 miles South 11.5 mph - N/A   Overcast
1:38 AM 44.6°F 39.2°F 81% 29.98 in 10.0 miles SSW 11.5 mph - 0.00 in Rain Light Rain
1:53 AM 44.1°F 39.9°F 85% 30.00 in 10.0 miles SSW 11.5 mph - 0.01 in   Overcast
2:53 AM 44.1°F 39.0°F 82% 30.00 in 9.0 miles SSW 15.0 mph 24.2 mph 0.00 in Rain Light Rain
3:53 AM 44.6°F 39.2°F 81% 30.00 in 10.0 miles South 11.5 mph - N/A   Overcast
4:53 AM 44.1°F 39.0°F 82% 30.04 in 10.0 miles South 10.4 mph - 0.00 in   Overcast
5:53 AM 44.1°F 41.0°F 89% 30.06 in 10.0 miles South 9.2 mph - 0.01 in   Overcast
6:47 AM 42.8°F 39.2°F 87% 30.03 in 10.0 miles South 15.0 mph 23.0 mph 0.00 in Rain Light Rain
6:53 AM 43.0°F 39.0°F 86% 30.06 in 10.0 miles South 15.0 mph 23.0 mph 0.00 in   Mostly Cloudy
7:30 AM 42.8°F 39.2°F 87% 30.05 in 10.0 miles South 9.2 mph - N/A   Overcast
7:53 AM 43.0°F 39.0°F 86% 30.08 in 10.0 miles South 9.2 mph - N/A   Overcast
8:49 AM 44.6°F 37.4°F 76% 30.05 in 10.0 miles South 10.4 mph - N/A   Overcast
8:53 AM 45.0°F 39.0°F 80% 30.08 in 10.0 miles South 8.1 mph - N/A   Overcast
9:53 AM 46.4°F 39.2°F 76% 30.04 in 10.0 miles SSE 9.2 mph - N/A   Overcast
10:53 AM 48.0°F 37.9°F 68% 30.06 in 10.0 miles South 10.4 mph - N/A   Overcast
11:53 AM 50.0°F 37.0°F 61% 30.04 in 10.0 miles SSW 13.8 mph - N/A   Overcast
12:53 PM 50.0°F 37.0°F 61% 30.02 in 10.0 miles SSW 12.7 mph - N/A   Overcast
1:53 PM 50.0°F 37.9°F 63% 30.00 in 10.0 miles South 10.4 mph - 0.00 in Rain Light Rain
2:53 PM 50.0°F 37.9°F 63% 29.99 in 10.0 miles South 10.4 mph - 0.00 in   Overcast
3:53 PM 48.0°F 39.0°F 71% 29.98 in 10.0 miles SSE 8.1 mph - 0.00 in Rain Light Rain
4:53 PM 46.9°F 39.0°F 74% 29.97 in 10.0 miles South 11.5 mph - 0.01 in Rain Light Rain
5:53 PM 46.0°F 39.9°F 79% 29.94 in 10.0 miles ESE 9.2 mph - 0.00 in   Overcast
6:53 PM 46.0°F 39.0°F 76% 29.91 in 10.0 miles SSE 6.9 mph - 0.01 in Rain Light Rain
7:53 PM 46.0°F 37.9°F 73% 29.88 in 10.0 miles ESE 9.2 mph - 0.00 in   Overcast
8:53 PM 45.0°F 37.9°F 76% 29.86 in 10.0 miles ESE 5.8 mph - N/A   Overcast
9:53 PM 46.0°F 37.0°F 71% 29.83 in 10.0 miles ESE 8.1 mph - N/A   Overcast
10:53 PM 46.9°F 37.0°F 68% 29.82 in 10.0 miles SE 6.9 mph - N/A   Overcast
11:53 PM 46.9°F 36.0°F 66% 29.82 in 10.0 miles SSE 5.8 mph - 0.00 in   Overcast
Moon Phase
Feb. 06 Feb. 10 Feb. 17 Feb. 25 Mar. 04
Sunrise:07:28 AM (PST) Moon Rise:04:25 AM (PST)2/6
Sunset:05:19 PM (PST) Moon Set:01:35 PM (PST)2/6

Copyright © 2014 The Weather Underground, Inc.